STARLINK-5756, 55598

Orbit data source: Space-Track

STARLINK-5756, 55598 is a payload satellite owned by SpaceX/Seattle (US) in LEO that was launched on Sun, 12 Feb 2023 UTC via an FALCON 9 launch vehicle from the Air Force Eastern Test Range (AFETR). Payload-class satellites include a variety of spacecraft equipped with specific instruments for various scientific and technological missions. These include communications satellites like Starlink; space stations such as the ISS; scientific satellites like the Hubble; Earth observation satellites from companies like Planet Labs, Umbra, and HawkEye 360; GPS; miniature CubeSats for education and research; and military/defense satellites.

Loading next visibility...
Identifier
55598, 2023-020AF
Orbit
LEO
Country
Flag of USUS
Related business
Manufacturer
SpaceX/Seattle
Mission
Operational Commercial Communications
Bus & Motor
STARLINK, Unknown motor
Mass
305 kg wet, ~290 kg dry
Launch date (UTC)
2023-02-12 (3 years ago)
Launch vehicle
FALCON 9
Launch site
Air Force Eastern Test Range (AFETR)
Object type
Payload
Rocket body
Debris
Shape & HBR
Box + 1 Pan, 10.1 m
Radar Cross Section
13.562 m², Large (>1 m²)

Expand to show TLE details & history
Last TLE update: 16 hours ago

TLE from 16 hours ago
0 STARLINK-5756
1 55598U 23020AF  26062.24101852 -.00001714  00000-0 -11182-3 0  9999
2 55598  43.0045  27.1635 0001647 255.2854 104.7806 15.02530364168092
Epoch: 2026-03-03T05:47Z
TLE epoch observation values (Epoch: 2026-03-03T05:47:04.000Z)
Latitude
Longitude
139.37393°
Altitude
559.167 km
Speed
7.584 km/s
True Right ascension
01h 48m 39s
True Declination
0° 00' 00"
Sunlit
Object was in daylight at epoch
Visualization orbit readout
Latitude
Unknown
Longitude
Unknown
Altitude
Unknown
Speed
Unknown
Apparent Right ascension
Unknown
Apparent Declination
Unknown
Sunlit
N/A
Visualization observer readout
Local Sidereal Time
01:13:53
Azimuth
Unknown
Elevation
Unknown
Doppler factor
Unknown
Orbital elements
Apogee altitude
562.163 km
Perigee altitude
559.877 km
Semi-major axis
6,939.157 km
Eccentricity
0.00016
Inclination
43.0045°
RAAN
27.1635°
Arg. of periapsis
255.2854°
True anomaly
104.79885°
Mean anomaly
104.7806°
Eccentric anomaly
104.78972°
Mean motion
3.75477 °/min
Orbital period
95.88 mins
BSTAR
-0.00011182
Loading maneuver chart data...
Computing Atmospheric mass density...
Loading historical data...
Loading historical data...
Loading historical data...
Loading historical data...
Loading historical data...
Loading historical data...
Loading historical data...

Documentation

Showing up to 5 results
|